SCP
0 0 -0 -0 -0 -0 -0 -0 -0 -0 -0 -0 -0 -0 -0 -0 -0 -0 -0 -0 -0 -0 0 0 0 0 0 0 0 0 0 0 0 0 0 0 0 0 0 0 0 0 0 0 0 0 0
0 0 -0 -0 -0 -0 -0 -0 -0 -0 -0 -0 -0 -0 -0 -0 -0 -0 -0 -0 -0 -0 -0 -0 -0 0 0 0 0 0 0 0 0 0 0 0 0 0 0 0 0 0 0 0 0 0 0
0 -0 -0 -0 -0 -0 -0 -0 -0 -0 -0 -0 -0 -0 -0 -0 -0 -0 -0 -0 -0 0 -0 -0 0 0 0 0 0 0 0 0 0 0 0 0 0 0 0 0 0 0 0 0 0 0 0
-0 -0 -0 -0 -0 -0 -0 -0 -0 -0 -0 -0 -0 -0 -0 -0 -0 -0 -0 -0 -0 0 -0 -0 -0 0 0 0 0 0 0 0 0 0 0 0 0 0 0 0 0 0 0 0 0 0 0
-0 -0 -0 -0 -0 -0 -0 -0 -0 -0 -0 -0 -0 -0 -0 -0 -0 -0 -0 0 -0 0 0 -0 0 0 -0 0 0 0 0 0 0 0 0 0 0 0 0 0 0 0 0 0 0 0 0
0 -0 -0 -0 -0 -0 -0 -0 -0 -0 -0 -0 -0 -0 -0 -0 -0 -0 0 -0 -0 -0 0 0 -0 0 0 0 0 0 0 0 0 0 0 0 0 0 0 0 0 0 0 0 0 0 0
0 -0 -0 -0 -0 -0 -0 -0 -0 -0 -0 -0 -0 -0 -0 -0 -0 -0 -0 -0 -0 -0 -0 -0 0 -0 -0 0 -0 0 0 0 0 0 0 0 0 0 0 0 0 0 0 0 0 0 0
-0 -0 -0 -0 -0 -0 -0 -0 -0 -0 -0 -0 -0 -0 -0 -0 -0 -0 0 -0 -0 -0 0 -0 -0 0 -0 -0 0 -0 -0 0 0 0 0 0 0 0 0 0 0 0 0 0 0 0 0
-0 -0 -0 -0 -0 -0 -0 -0 -0 -0 -0 -0 -0 -0 -0 -0 0 0 0 0 0 0 -0 -0 -0 -0 -0 -0 0 0 0 0 0 0 0 0 0 0 0 0 0 0 0 0 0 0 0
-0 -0 -0 -0 -0 -0 -0 -0 -0 -0 -0 -0 -0 -0 -0 -0 0 0 -0 -0 -0 -0 0 0 -0 -0 -0 -0 0 -0 -0 0 0 0 0 0 0 0 0 0 0 0 0 0 0 0 0
-0 -0 -0 -0 -0 -0 -0 -0 -0 -0 -0 -0 -0 -0 -0 -0 0 0 0 -0 -0 -0 0 0 0 -0 -0 -0 -0 0 -0 -0 0 0 0 0 0 0 0 0 0 0 0 0 0 0 0
-0 -0 -0 -0 -0 -0 -0 -0 -0 -0 -0 -0 -0 -0 0 0 -0 -0 0 -0 -0 0 0 0 -0 0 0 -0 0 -0 -0 -0 -0 0 0 0 0 0 0 0 0 0 0 0 0 0 0
-0 -0 -0 -0 -0 -0 -0 -0 -0 -0 -0 -0 -0 0 -0 -0 -0 0 -0 -0 0 0 0 0 0 0 0 0 0 0 0 0 0 0 0 0 0 0 0 0 0 0 0 0 0 0 0
0 -0 -0 -0 -0 -0 -0 -0 -0 -0 -0 -0 -0 -0 -0 -0 0 -0 -0 0 0 0 0 0 0 0 0 0 0 0 0 0 0 0 0 0 0 0 0 0 0 0 0 0 0 0 0
0 0 -0 -0 -0 -0 -0 -0 -0 -0 -0 -0 0 0 -0 0 -0 -0 0 0 0 0 0 0 0 0 0 0 0 0 0 0 0 0 0 0 0 0 0 0 0 0 0 0 0 0 0
0 0 0 0 -0 -0 -0 -0 -0 -0 -0 -0 0 0 0 0 -0 0 0 0 0 0 0 0 0 0 0 0 0 0 0 0 0 0 0 0 0 0 0 0 0 0 0 0 0 0 0
0 0 0 0 0 -0 -0 -0 -0 -0 -0 0 0 0 0 0 0 0 0 0 0 0 0 0 0 0 0 0 0 0 0 0 0 0 0 0 0 0 0 0 0 0 0 0 0 0 0
0 0 0 0 0 0 -0 -0 -0 -0 -0 0 0 0 0 0 0 0 0 0 0 0 0 0 0 0 0 0 0 0 0 0 0 0 0 0 0 0 0 0 0 0 0 0 0 0 0
0 0 0 0 0 0 0 0 0 -0 0 0 0 0 0 0 0 0 0 0 0 0 0 0 0 0 0 0 0 0 0 0 0 0 0 0 0 0 0 0 0 0 0 0 0 0 0
0 0 0 0 0 0 0 0 0 -0 0 0 0 0 0 0 0 0 0 0 0 0 0 0 0 0 0 0 0 0 0 0 0 0 0 0 0 0 0 0 0 0 0 0 0 0 0
0 0 0 0 0 0 0 0 -0 -0 -0 -0 0 0 -0 0 0 0 0 0 0 0 0 0 0 0 0 0 0 0 0 0 0 0 0 0 0 0 0 0 0 0 0 0 0 0 0
0 0 0 0 0 0 0 0 -0 -0 -0 -0 -0 -0 -0 0 0 0 0 0 0 0 0 0 0 0 0 0 0 0 0 0 0 0 0 0 0 0 0 0 0 0 0 0 0 -0 0
0 0 0 0 0 0 -0 -0 -0 -0 0 -0 -0 -0 -0 0 0 0 0 0 0 0 0 0 0 0 0 0 0 0 0 0 0 0 0 0 0 0 0 0 0 0 0 0 0 0 0
0 0 0 0 0 0 -0 -0 -0 -0 -0 -0 -0 -0 0 0 0 0 0 0 0 0 0 0 0 0 0 0 0 0 0 0 0 0 0 0 0 0 0 0 0 0 0 0 0 0 0
0 0 0 0 0 0 0 -0 -0 -0 -0 -0 -0 0 0 0 0 0 0 0 0 0 0 0 0 0 0 0 0 0 0 0 0 0 0 0 0 0 0 0 0 0 0 0 0 0 0
0 0 0 0 0 0 0 0 0 0 0 0 0 -0 0 0 0 0 0 0 0 0 0 0 0 0 0 0 0 0 0 0 0 0 0 0 0 0 0 0 0 0 0 0 0 -0 0
0 0 0 0 0 0 0 0 0 0 0 0 0 0 0 0 0 0 0 0 0 0 0 0 0 0 0 0 0 0 0 0 0 0 0 0 0 0 0 0 0 0 0 0 0 0 0
0 0 0 0 0 0 0 0 0 0 0 0 0 0 0 0 0 0 0 0 0 0 0 0 0 0 0 0 0 0 0 0 0 0 0 0 0 0 0 0 0 0 0 0 0 0 0
0 0 0 0 0 0 0 0 0 0 0 0 0 0 0 0 0 0 0 0 0 0 0 0 0 0 0 0 0 0 0 0 0 0 0 0 0 0 0 0 0 0 0 0 0 -0 0
Wind_Speed_500mb
66 63 60 56 54 52 51 48 47 44 38 31 22 20 22 22 20 14 11 10 12 17 24 23 16 9 8 14 16 18 17 16 17 16 17 15 11 7 7 7 7 6 2 4 2 13 18
67 67 64 61 57 55 53 52 49 46 39 32 22 18 19 19 18 15 11 13 20 28 26 17 10 11 16 22 16 14 15 15 15 22 25 21 11 9 9 4 1 0 8 13 4 6 7
68 66 65 64 61 59 57 54 52 49 42 32 21 15 17 17 19 18 18 25 30 27 20 15 13 13 17 11 11 10 11 15 11 12 16 16 14 7 6 6 2 2 8 3 12 11 4
71 68 67 65 63 61 59 58 57 52 44 31 19 13 15 17 23 26 29 30 27 22 17 15 14 12 8 11 9 10 8 3 8 6 7 6 8 9 3 4 5 2 1 10 6 15 3
74 72 70 68 64 62 61 61 60 56 45 29 16 11 15 18 21 20 22 21 16 12 13 10 10 13 9 4 6 4 6 5 4 6 4 3 1 5 5 5 5 3 4 3 4 9 9
77 77 75 72 68 64 63 63 63 59 45 28 15 11 16 16 16 15 14 10 9 9 11 9 13 8 6 5 6 6 7 3 5 5 4 2 5 3 4 6 7 9 6 3 4 6 11
75 77 79 76 72 67 65 65 64 61 45 29 15 10 16 16 13 12 6 6 6 3 10 6 5 4 7 3 1 1 9 2 7 9 4 6 3 2 2 3 3 6 5 2 3 2 19
71 76 78 79 75 69 66 65 64 61 45 30 16 11 14 18 15 17 10 10 10 5 7 8 4 3 4 2 4 6 11 6 6 8 1 3 7 7 3 7 4 4 3 7 4 6 11
67 72 76 78 77 72 66 65 64 61 46 29 16 15 14 14 12 10 14 15 9 6 2 6 3 5 3 2 5 11 12 8 8 8 8 5 9 5 4 7 4 2 3 2 7 10 5
64 69 73 77 79 75 68 63 62 59 44 28 15 16 17 16 8 7 9 10 4 6 3 6 4 4 2 1 7 9 11 4 5 7 5 7 7 8 6 5 2 4 4 3 11 16 14
62 66 71 74 77 77 70 62 60 57 40 27 17 11 6 4 6 6 7 6 1 3 5 3 4 2 2 5 2 9 10 8 8 6 3 7 5 8 8 5 2 4 3 6 9 10 8
60 63 67 73 76 76 72 63 59 54 29 25 20 13 7 6 6 11 8 3 4 2 6 3 6 6 3 9 5 4 6 11 6 6 8 7 3 6 5 6 7 3 4 3 3 1 8
59 62 66 71 73 76 73 66 58 54 27 14 19 17 14 13 11 6 7 7 2 7 4 9 6 8 8 10 7 11 8 12 7 4 11 7 6 3 9 1 3 7 8 8 5 5 4
58 61 65 70 72 74 74 67 58 54 39 1 10 16 15 15 13 6 1 3 10 2 5 4 6 12 9 14 9 11 5 5 13 7 5 6 5 7 11 5 7 6 4 4 9 7 14
56 60 65 69 71 73 73 68 59 53 43 3 2 9 28 14 11 8 3 8 4 1 3 6 2 7 7 8 7 5 9 4 8 10 5 6 1 4 2 4 7 4 5 6 8 3 9
53 58 64 67 67 71 70 67 61 52 44 12 3 6 28 17 12 4 7 6 3 2 2 4 6 6 6 12 6 7 4 9 4 7 4 4 9 4 5 2 7 5 7 5 2 8 12
51 54 62 61 64 68 68 65 62 52 43 17 1 3 27 18 9 10 7 4 2 9 4 7 5 5 6 6 5 6 6 8 12 7 14 3 3 2 6 3 21 4 6 3 5 7 9
48 51 53 58 62 66 67 64 61 57 45 19 5 4 26 16 8 6 4 3 10 6 14 8 8 7 3 4 4 4 2 6 11 8 5 5 1 9 19 16 10 11 10 10 7 7 6
44 50 50 53 59 63 66 64 60 57 49 31 6 8 22 7 5 5 5 5 13 10 10 6 5 5 2 3 2 1 1 11 17 9 5 4 4 10 8 6 3 3 4 5 2 3 22
38 43 44 50 55 60 64 66 61 54 45 24 7 3 17 27 15 5 5 6 4 17 10 9 7 6 4 2 5 2 2 2 17 8 4 8 6 18 19 24 14 25 26 30 25 8 35
37 42 45 47 52 56 62 64 61 52 40 19 13 7 6 6 13 12 3 3 5 7 12 17 6 8 4 3 4 3 1 9 10 13 5 3 11 12 23 25 29 33 37 37 35 36 31
34 37 43 46 46 53 60 63 60 52 38 36 10 6 7 5 4 2 9 5 5 4 8 5 6 4 3 5 7 5 2 4 8 6 5 4 7 6 21 25 19 26 34 33 40 42 38
32 38 42 47 43 47 53 58 59 53 44 22 19 13 4 6 3 2 3 2 4 2 5 6 2 2 6 2 7 16 18 17 23 14 6 5 3 2 8 7 24 28 15 8 12 12 15
35 33 35 46 45 42 45 51 53 49 43 32 26 11 6 2 2 4 1 2 3 3 3 3 1 5 1 16 22 10 4 8 8 8 14 8 4 0 8 16 8 3 14 15 15 15 24
39 37 33 37 44 37 39 45 46 42 36 28 25 16 9 3 2 2 6 3 6 7 5 5 3 3 14 10 4 4 3 5 4 8 13 2 4 2 6 5 28 10 6 5 5 33 25
38 40 37 34 40 39 36 40 41 38 31 25 20 18 8 3 4 4 2 1 3 3 3 3 2 8 4 2 2 4 3 1 4 5 9 6 6 5 4 4 9 4 7 27 30 29 9
40 40 39 33 38 41 32 37 37 34 28 23 17 15 8 5 6 9 6 3 6 3 3 5 6 1 4 3 3 5 3 3 5 6 5 5 2 7 5 10 15 10 5 28 15 17 52
43 42 41 36 36 35 29 34 36 33 26 21 19 14 10 8 17 17 14 13 8 7 4 0 3 2 2 3 3 3 4 1 6 5 3 4 4 5 4 9 12 6 26 6 28 62 63
40 38 39 38 38 30 30 30 32 32 26 21 17 19 17 13 15 24 32 32 30 18 8 6 2 4 5 6 2 2 4 3 2 6 4 6 8 3 10 9 16 32 31 41 47 67 62
Wind_Direction_500mb
24 24 24 22 18 16 13 12 8 8 7 6 4 2 3 10 18 40 53 72 108 123 126 127 122 93 88 91 103 99 88 86 75 92 122 98 101 112 128 128 136 201 275 199 310 263 243
23 21 21 21 19 16 14 10 7 5 5 4 7 11 13 23 34 44 66 93 114 122 120 108 80 74 108 95 102 86 72 79 82 86 81 75 73 89 107 106 176 115 282 306 358 277 265
23 21 20 19 17 15 13 11 6 3 2 2 11 24 29 39 47 59 88 109 114 110 98 80 73 98 107 100 111 92 89 76 85 93 81 71 54 47 129 124 29 297 295 305 12 354 48
23 21 20 19 16 14 13 9 6 3 1 2 17 45 54 63 72 79 99 107 105 96 72 60 78 97 87 119 70 78 75 97 71 103 71 66 31 77 89 130 53 113 212 232 31 15 83
21 21 19 18 17 14 11 10 6 4 3 6 22 72 83 92 82 84 99 97 87 62 40 59 79 101 114 98 77 62 35 54 132 118 77 312 85 83 106 161 171 47 225 208 193 46 333
20 20 19 17 16 14 11 10 7 6 8 11 27 103 112 112 88 84 95 63 28 24 21 56 72 108 93 69 88 82 35 353 131 140 152 143 68 100 112 205 224 165 161 141 307 7 331
16 16 17 16 15 13 11 10 8 7 10 16 32 117 132 130 89 73 65 18 345 32 41 45 19 79 56 98 153 347 356 67 119 97 96 26 155 64 38 186 134 118 109 358 265 335 324
13 13 14 14 13 13 11 10 9 7 12 16 45 105 142 142 107 84 82 86 56 20 337 33 64 26 72 70 21 23 0 117 95 85 103 146 67 341 212 153 131 75 13 335 265 290 310
11 11 12 12 11 12 12 10 9 7 12 19 57 91 116 149 129 100 83 59 38 339 30 360 45 20 38 65 47 30 39 82 87 65 40 70 10 81 142 124 122 89 279 233 294 312 226
10 9 9 9 9 10 12 11 9 8 11 24 68 95 106 110 126 125 65 28 30 16 81 359 28 43 137 34 59 40 36 65 69 61 109 79 8 60 88 112 208 309 188 278 306 322 314
6 7 7 6 6 7 9 11 10 12 14 32 57 95 105 44 92 52 338 336 207 312 95 356 26 71 100 60 123 40 39 42 63 47 334 42 27 27 66 28 303 56 6 353 323 292 300
1 3 4 4 4 5 6 9 9 12 20 39 50 58 47 358 332 327 309 199 164 192 89 24 4 9 65 24 48 41 59 62 89 82 41 23 313 25 22 63 46 88 249 58 96 211 251
360 0 1 2 3 3 4 5 7 8 15 48 47 41 35 26 354 15 111 144 148 68 321 5 351 355 89 16 50 21 50 38 31 11 22 353 46 22 24 126 124 10 334 305 254 226 325
356 358 358 360 1 0 1 2 6 4 9 10 36 29 26 15 19 24 112 97 73 34 32 0 3 52 70 3 44 24 74 74 44 48 84 22 165 16 356 33 346 6 317 299 294 285 307
353 355 355 356 359 359 358 359 2 4 4 23 141 50 21 7 357 340 150 60 91 132 327 359 87 58 40 24 33 71 49 52 29 11 42 352 297 340 60 337 315 79 266 13 277 248 267
352 353 355 354 357 358 358 357 357 3 1 12 272 269 359 8 1 79 81 104 74 258 84 61 79 17 48 8 32 34 58 4 79 38 333 130 291 35 323 220 82 334 129 247 219 278 271
348 350 353 357 359 360 2 359 356 359 3 358 57 142 1 358 11 55 83 86 25 29 89 50 102 88 66 19 5 20 48 53 8 34 53 57 257 200 296 302 312 285 234 117 296 243 270
346 349 351 357 0 3 5 4 360 358 4 9 53 71 358 3 42 36 75 0 349 342 44 81 90 93 97 54 30 42 76 56 24 24 29 34 209 268 290 294 296 254 266 231 210 217 234
344 345 349 353 0 7 9 8 6 2 2 4 40 24 14 28 84 54 17 57 44 29 34 49 89 46 50 81 95 77 65 167 28 3 359 180 229 302 284 149 157 86 134 101 36 289 256
338 341 348 352 359 3 7 9 10 6 3 10 19 47 30 52 63 64 45 20 79 32 59 49 91 80 82 84 37 306 330 285 327 342 349 185 234 244 258 289 301 279 271 265 259 249 275
333 340 346 354 357 1 2 5 10 11 10 21 40 65 25 14 34 54 50 7 35 20 17 33 82 68 92 117 306 263 265 318 325 1 81 19 273 263 273 278 270 269 269 266 260 258 257
330 339 346 345 350 357 1 2 5 14 20 41 62 32 36 54 353 59 7 40 47 29 3 18 84 42 162 211 210 284 279 264 272 41 36 347 265 303 285 278 284 267 266 268 272 276 274
323 333 339 339 342 353 357 0 1 10 20 45 39 32 62 358 50 152 59 17 41 310 103 72 76 171 222 215 291 283 276 266 268 281 265 234 235 279 278 335 311 282 275 248 273 288 287
304 311 323 330 334 349 354 358 358 3 16 29 27 28 18 78 19 86 167 282 275 327 283 321 40 211 196 307 302 282 268 262 229 252 205 172 142 248 288 320 254 35 301 295 292 286 285
296 297 308 315 325 338 347 352 352 356 5 12 22 27 17 358 306 186 167 221 291 299 248 251 146 293 310 318 264 286 149 193 95 77 154 63 114 308 282 266 289 292 88 59 330 295 286
273 286 292 299 316 325 335 344 345 347 353 1 7 17 5 330 194 199 225 216 284 302 288 237 252 322 314 52 232 245 253 327 213 170 152 75 49 227 138 272 274 55 186 335 323 290 115
267 271 279 286 297 307 325 331 335 339 342 348 345 354 353 301 254 214 241 234 168 161 262 291 344 24 43 138 174 211 215 318 264 258 189 243 195 244 227 255 271 265 275 324 292 321 322
261 259 266 275 289 294 315 322 326 330 334 339 331 334 341 281 276 254 239 216 191 191 218 116 287 164 105 131 204 157 236 85 273 273 259 265 262 237 215 246 269 164 331 347 306 305 303
262 257 254 261 271 283 295 306 315 320 326 328 322 321 319 286 266 279 271 261 244 243 209 232 269 179 170 105 161 114 221 215 250 280 170 245 216 260 222 247 280 301 308 305 307 310 305
Wind_Speed_850mb
66 63 60 56 54 52 51 48 47 44 38 31 22 20 22 22 20 14 11 10 12 17 24 23 16 9 8 14 16 18 17 16 17 16 17 15 11 7 7 7 7 6 2 4 2 13 18
67 67 64 61 57 55 53 52 49 46 39 32 22 18 19 19 18 15 11 13 20 28 26 17 10 11 16 22 16 14 15 15 15 22 25 21 11 9 9 4 1 0 8 13 4 6 7
68 66 65 64 61 59 57 54 52 49 42 32 21 15 17 17 19 18 18 25 30 27 20 15 13 13 17 11 11 10 11 15 11 12 16 16 14 7 6 6 2 2 8 3 12 11 4
71 68 67 65 63 61 59 58 57 52 44 31 19 13 15 17 23 26 29 30 27 22 17 15 14 12 8 11 9 10 8 3 8 6 7 6 8 9 3 4 5 2 1 10 6 15 3
74 72 70 68 64 62 61 61 60 56 45 29 16 11 15 18 21 20 22 21 16 12 13 10 10 13 9 4 6 4 6 5 4 6 4 3 1 5 5 5 5 3 4 3 4 9 9
77 77 75 72 68 64 63 63 63 59 45 28 15 11 16 16 16 15 14 10 9 9 11 9 13 8 6 5 6 6 7 3 5 5 4 2 5 3 4 6 7 9 6 3 4 6 11
75 77 79 76 72 67 65 65 64 61 45 29 15 10 16 16 13 12 6 6 6 3 10 6 5 4 7 3 1 1 9 2 7 9 4 6 3 2 2 3 3 6 5 2 3 2 19
71 76 78 79 75 69 66 65 64 61 45 30 16 11 14 18 15 17 10 10 10 5 7 8 4 3 4 2 4 6 11 6 6 8 1 3 7 7 3 7 4 4 3 7 4 6 11
67 72 76 78 77 72 66 65 64 61 46 29 16 15 14 14 12 10 14 15 9 6 2 6 3 5 3 2 5 11 12 8 8 8 8 5 9 5 4 7 4 2 3 2 7 10 5
64 69 73 77 79 75 68 63 62 59 44 28 15 16 17 16 8 7 9 10 4 6 3 6 4 4 2 1 7 9 11 4 5 7 5 7 7 8 6 5 2 4 4 3 11 16 14
62 66 71 74 77 77 70 62 60 57 40 27 17 11 6 4 6 6 7 6 1 3 5 3 4 2 2 5 2 9 10 8 8 6 3 7 5 8 8 5 2 4 3 6 9 10 8
60 63 67 73 76 76 72 63 59 54 29 25 20 13 7 6 6 11 8 3 4 2 6 3 6 6 3 9 5 4 6 11 6 6 8 7 3 6 5 6 7 3 4 3 3 1 8
59 62 66 71 73 76 73 66 58 54 27 14 19 17 14 13 11 6 7 7 2 7 4 9 6 8 8 10 7 11 8 12 7 4 11 7 6 3 9 1 3 7 8 8 5 5 4
58 61 65 70 72 74 74 67 58 54 39 1 10 16 15 15 13 6 1 3 10 2 5 4 6 12 9 14 9 11 5 5 13 7 5 6 5 7 11 5 7 6 4 4 9 7 14
56 60 65 69 71 73 73 68 59 53 43 3 2 9 28 14 11 8 3 8 4 1 3 6 2 7 7 8 7 5 9 4 8 10 5 6 1 4 2 4 7 4 5 6 8 3 9
53 58 64 67 67 71 70 67 61 52 44 12 3 6 28 17 12 4 7 6 3 2 2 4 6 6 6 12 6 7 4 9 4 7 4 4 9 4 5 2 7 5 7 5 2 8 12
51 54 62 61 64 68 68 65 62 52 43 17 1 3 27 18 9 10 7 4 2 9 4 7 5 5 6 6 5 6 6 8 12 7 14 3 3 2 6 3 21 4 6 3 5 7 9
48 51 53 58 62 66 67 64 61 57 45 19 5 4 26 16 8 6 4 3 10 6 14 8 8 7 3 4 4 4 2 6 11 8 5 5 1 9 19 16 10 11 10 10 7 7 6
44 50 50 53 59 63 66 64 60 57 49 31 6 8 22 7 5 5 5 5 13 10 10 6 5 5 2 3 2 1 1 11 17 9 5 4 4 10 8 6 3 3 4 5 2 3 22
38 43 44 50 55 60 64 66 61 54 45 24 7 3 17 27 15 5 5 6 4 17 10 9 7 6 4 2 5 2 2 2 17 8 4 8 6 18 19 24 14 25 26 30 25 8 35
37 42 45 47 52 56 62 64 61 52 40 19 13 7 6 6 13 12 3 3 5 7 12 17 6 8 4 3 4 3 1 9 10 13 5 3 11 12 23 25 29 33 37 37 35 36 31
34 37 43 46 46 53 60 63 60 52 38 36 10 6 7 5 4 2 9 5 5 4 8 5 6 4 3 5 7 5 2 4 8 6 5 4 7 6 21 25 19 26 34 33 40 42 38
32 38 42 47 43 47 53 58 59 53 44 22 19 13 4 6 3 2 3 2 4 2 5 6 2 2 6 2 7 16 18 17 23 14 6 5 3 2 8 7 24 28 15 8 12 12 15
35 33 35 46 45 42 45 51 53 49 43 32 26 11 6 2 2 4 1 2 3 3 3 3 1 5 1 16 22 10 4 8 8 8 14 8 4 0 8 16 8 3 14 15 15 15 24
39 37 33 37 44 37 39 45 46 42 36 28 25 16 9 3 2 2 6 3 6 7 5 5 3 3 14 10 4 4 3 5 4 8 13 2 4 2 6 5 28 10 6 5 5 33 25
38 40 37 34 40 39 36 40 41 38 31 25 20 18 8 3 4 4 2 1 3 3 3 3 2 8 4 2 2 4 3 1 4 5 9 6 6 5 4 4 9 4 7 27 30 29 9
40 40 39 33 38 41 32 37 37 34 28 23 17 15 8 5 6 9 6 3 6 3 3 5 6 1 4 3 3 5 3 3 5 6 5 5 2 7 5 10 15 10 5 28 15 17 52
43 42 41 36 36 35 29 34 36 33 26 21 19 14 10 8 17 17 14 13 8 7 4 0 3 2 2 3 3 3 4 1 6 5 3 4 4 5 4 9 12 6 26 6 28 62 63
40 38 39 38 38 30 30 30 32 32 26 21 17 19 17 13 15 24 32 32 30 18 8 6 2 4 5 6 2 2 4 3 2 6 4 6 8 3 10 9 16 32 31 41 47 67 62
Wind_Direction_850mb
24 24 24 22 18 16 13 12 8 8 7 6 4 2 3 10 18 40 53 72 108 123 126 127 122 93 88 91 103 99 88 86 75 92 122 98 101 112 128 128 136 201 275 199 310 263 243
23 21 21 21 19 16 14 10 7 5 5 4 7 11 13 23 34 44 66 93 114 122 120 108 80 74 108 95 102 86 72 79 82 86 81 75 73 89 107 106 176 115 282 306 358 277 265
23 21 20 19 17 15 13 11 6 3 2 2 11 24 29 39 47 59 88 109 114 110 98 80 73 98 107 100 111 92 89 76 85 93 81 71 54 47 129 124 29 297 295 305 12 354 48
23 21 20 19 16 14 13 9 6 3 1 2 17 45 54 63 72 79 99 107 105 96 72 60 78 97 87 119 70 78 75 97 71 103 71 66 31 77 89 130 53 113 212 232 31 15 83
21 21 19 18 17 14 11 10 6 4 3 6 22 72 83 92 82 84 99 97 87 62 40 59 79 101 114 98 77 62 35 54 132 118 77 312 85 83 106 161 171 47 225 208 193 46 333
20 20 19 17 16 14 11 10 7 6 8 11 27 103 112 112 88 84 95 63 28 24 21 56 72 108 93 69 88 82 35 353 131 140 152 143 68 100 112 205 224 165 161 141 307 7 331
16 16 17 16 15 13 11 10 8 7 10 16 32 117 132 130 89 73 65 18 345 32 41 45 19 79 56 98 153 347 356 67 119 97 96 26 155 64 38 186 134 118 109 358 265 335 324
13 13 14 14 13 13 11 10 9 7 12 16 45 105 142 142 107 84 82 86 56 20 337 33 64 26 72 70 21 23 0 117 95 85 103 146 67 341 212 153 131 75 13 335 265 290 310
11 11 12 12 11 12 12 10 9 7 12 19 57 91 116 149 129 100 83 59 38 339 30 360 45 20 38 65 47 30 39 82 87 65 40 70 10 81 142 124 122 89 279 233 294 312 226
10 9 9 9 9 10 12 11 9 8 11 24 68 95 106 110 126 125 65 28 30 16 81 359 28 43 137 34 59 40 36 65 69 61 109 79 8 60 88 112 208 309 188 278 306 322 314
6 7 7 6 6 7 9 11 10 12 14 32 57 95 105 44 92 52 338 336 207 312 95 356 26 71 100 60 123 40 39 42 63 47 334 42 27 27 66 28 303 56 6 353 323 292 300
1 3 4 4 4 5 6 9 9 12 20 39 50 58 47 358 332 327 309 199 164 192 89 24 4 9 65 24 48 41 59 62 89 82 41 23 313 25 22 63 46 88 249 58 96 211 251
360 0 1 2 3 3 4 5 7 8 15 48 47 41 35 26 354 15 111 144 148 68 321 5 351 355 89 16 50 21 50 38 31 11 22 353 46 22 24 126 124 10 334 305 254 226 325
356 358 358 360 1 0 1 2 6 4 9 10 36 29 26 15 19 24 112 97 73 34 32 0 3 52 70 3 44 24 74 74 44 48 84 22 165 16 356 33 346 6 317 299 294 285 307
353 355 355 356 359 359 358 359 2 4 4 23 141 50 21 7 357 340 150 60 91 132 327 359 87 58 40 24 33 71 49 52 29 11 42 352 297 340 60 337 315 79 266 13 277 248 267
352 353 355 354 357 358 358 357 357 3 1 12 272 269 359 8 1 79 81 104 74 258 84 61 79 17 48 8 32 34 58 4 79 38 333 130 291 35 323 220 82 334 129 247 219 278 271
348 350 353 357 359 360 2 359 356 359 3 358 57 142 1 358 11 55 83 86 25 29 89 50 102 88 66 19 5 20 48 53 8 34 53 57 257 200 296 302 312 285 234 117 296 243 270
346 349 351 357 0 3 5 4 360 358 4 9 53 71 358 3 42 36 75 0 349 342 44 81 90 93 97 54 30 42 76 56 24 24 29 34 209 268 290 294 296 254 266 231 210 217 234
344 345 349 353 0 7 9 8 6 2 2 4 40 24 14 28 84 54 17 57 44 29 34 49 89 46 50 81 95 77 65 167 28 3 359 180 229 302 284 149 157 86 134 101 36 289 256
338 341 348 352 359 3 7 9 10 6 3 10 19 47 30 52 63 64 45 20 79 32 59 49 91 80 82 84 37 306 330 285 327 342 349 185 234 244 258 289 301 279 271 265 259 249 275
333 340 346 354 357 1 2 5 10 11 10 21 40 65 25 14 34 54 50 7 35 20 17 33 82 68 92 117 306 263 265 318 325 1 81 19 273 263 273 278 270 269 269 266 260 258 257
330 339 346 345 350 357 1 2 5 14 20 41 62 32 36 54 353 59 7 40 47 29 3 18 84 42 162 211 210 284 279 264 272 41 36 347 265 303 285 278 284 267 266 268 272 276 274
323 333 339 339 342 353 357 0 1 10 20 45 39 32 62 358 50 152 59 17 41 310 103 72 76 171 222 215 291 283 276 266 268 281 265 234 235 279 278 335 311 282 275 248 273 288 287
304 311 323 330 334 349 354 358 358 3 16 29 27 28 18 78 19 86 167 282 275 327 283 321 40 211 196 307 302 282 268 262 229 252 205 172 142 248 288 320 254 35 301 295 292 286 285
296 297 308 315 325 338 347 352 352 356 5 12 22 27 17 358 306 186 167 221 291 299 248 251 146 293 310 318 264 286 149 193 95 77 154 63 114 308 282 266 289 292 88 59 330 295 286
273 286 292 299 316 325 335 344 345 347 353 1 7 17 5 330 194 199 225 216 284 302 288 237 252 322 314 52 232 245 253 327 213 170 152 75 49 227 138 272 274 55 186 335 323 290 115
267 271 279 286 297 307 325 331 335 339 342 348 345 354 353 301 254 214 241 234 168 161 262 291 344 24 43 138 174 211 215 318 264 258 189 243 195 244 227 255 271 265 275 324 292 321 322
261 259 266 275 289 294 315 322 326 330 334 339 331 334 341 281 276 254 239 216 191 191 218 116 287 164 105 131 204 157 236 85 273 273 259 265 262 237 215 246 269 164 331 347 306 305 303
262 257 254 261 271 283 295 306 315 320 326 328 322 321 319 286 266 279 271 261 244 243 209 232 269 179 170 105 161 114 221 215 250 280 170 245 216 260 222 247 280 301 308 305 307 310 305